Location: Ocean City
(38.3360°N, 75.0850°W)
Time: 21:09:25
(UTC-04:00)

STARS - Pass Details

Date: 22 May 2019
Orbit: 625 x 640 km, 98.3° (Epoch: 14 June)

Event Time Altitude Azimuth Distance (km) Brightness Sun altitude
Rises 21:19:47 0° 3° (N) 2,946 ? -12.2°
Reaches altitude 10° 21:22:07 10° 355° (N) 2,031 ? -12.6°
Maximum altitude 21:26:09 36° 289° (WNW) 1,018 ? -13.2°
Drops below altitude 10° 21:30:08 10° 224° (SW) 2,009 ? -13.8°
Sets 21:32:27 0° 215° (SW) 2,910 ? -14.1°
